Latest Weather Observations for Moorabbin Airport

IDV60901

Issued at 7:21 pm EST Sunday 5 July 2015 (issued every 10 minutes, with the page automatically refreshed every 10 minutes)

About weather observations | Map of Melbourne area stations | Latest observations for Melbourne area | Other Formats
Station Details ID: 086077 Name: MOORABBIN AIRPORT Lat: -37.98 Lon: 145.10 Height: 12.1 m
Data from the previous 72 hours. | See also: Recent months at Moorabbin Airport
Date/Time
EST
Tmp

°C
App
Tmp
°C
Dew
Point
°C
Rel
Hum
%
Delta-T

°C
Wind Press
QNH
hPa
Press
MSL
hPa
Rain
since
9 am
mm
Dir
 
Spd
km/h
Gust
km/h
Spd
kts
Gust
kts
05/07:00pm 10.1 5.3 4.5 68 2.5 N 19 26 10 14 1017.7 1017.8 0.0
05/06:30pm 10.3 5.3 4.5 67 2.6 N 20 26 11 14 1017.7 1017.8 0.0
05/06:00pm 11.2 5.4 4.2 62 3.1 N 24 33 13 18 1017.6 1017.7 0.0
05/05:30pm 11.6 5.8 4.3 61 3.3 N 24 32 13 17 1017.3 1017.4 0.0
05/05:00pm 12.0 5.5 4.5 60 3.4 N 28 39 15 21 1017.1 1017.2 0.0
05/04:30pm 12.5 5.2 4.5 58 3.6 N 32 44 17 24 1017.0 1017.1 0.0
05/04:00pm 12.8 5.4 4.8 58 3.7 N 33 48 18 26 1017.0 1017.1 0.0
05/03:30pm 13.0 5.2 4.7 57 3.8 N 35 44 19 24 1017.1 1017.2 0.0
05/03:00pm 13.1 5.9 4.8 57 3.8 N 32 41 17 22 1017.3 1017.4 0.0
05/02:30pm 12.9 6.0 4.6 57 3.8 N 30 39 16 21 1017.6 1017.7 0.0
05/02:00pm 13.6 6.4 5.0 56 4.0 N 32 41 17 22 1017.5 1017.6 0.0
05/01:30pm 13.5 6.7 4.9 56 4.0 N 30 41 16 22 1017.7 1017.8 0.0
05/01:00pm 13.4 6.1 4.6 55 4.0 N 32 44 17 24 1018.0 1018.1 0.0
05/12:30pm 13.1 5.8 4.5 56 3.9 N 32 41 17 22 1018.4 1018.5 0.0
05/12:00pm 12.8 6.3 4.5 57 3.8 N 28 37 15 20 1018.8 1018.9 0.0
05/11:30am 12.3 5.0 4.3 58 3.6 N 32 39 17 21 1019.2 1019.3 0.0
05/11:00am 11.8 4.8 4.1 59 3.4 N 30 39 16 21 1019.6 1019.7 0.0
05/10:30am 11.3 4.7 4.1 61 3.2 N 28 37 15 20 1020.0 1020.1 0.0
05/10:00am 10.2 3.9 3.7 64 2.8 N 26 35 14 19 1020.2 1020.3 0.0
05/09:30am 10.0 3.3 3.5 64 2.8 N 28 35 15 19 1020.4 1020.5 0.0
05/09:00am 9.9 4.3 3.6 65 2.7 N 22 33 12 18 1020.4 1020.5 2.6
05/08:30am 9.4 4.2 3.8 68 2.4 N 20 28 11 15 1020.2 1020.3 2.6
05/08:00am 9.3 3.4 4.1 70 2.3 N 24 30 13 16 1020.2 1020.3 2.6
05/07:30am 9.2 4.2 4.4 72 2.1 N 20 24 11 13 1020.2 1020.3 2.6
05/07:00am 9.2 4.8 4.6 73 2.0 N 17 22 9 12 1020.3 1020.4 2.6
05/06:30am 8.8 4.8 4.8 76 1.8 NNE 15 17 8 9 1020.1 1020.2 2.6
05/06:00am 9.0 4.2 4.6 74 1.9 N 19 22 10 12 1019.9 1020.0 2.6
05/05:30am 8.9 3.9 4.5 74 1.9 N 20 26 11 14 1019.6 1019.7 2.6
05/05:00am 8.9 3.5 4.5 74 1.9 N 22 28 12 15 1019.4 1019.5 2.6
05/04:30am 9.2 3.9 4.8 74 2.0 N 22 32 12 17 1019.5 1019.6 2.6
05/04:00am 9.1 3.8 4.9 75 1.9 N 22 26 12 14 1019.7 1019.8 2.6
05/03:30am 9.1 3.8 5.1 76 1.8 N 22 30 12 16 1020.0 1020.1 2.6
05/03:00am 9.2 3.2 5.2 76 1.8 N 26 33 14 18 1020.3 1020.4 2.6
05/02:30am 8.9 2.2 5.5 79 1.5 N 30 39 16 21 1020.2 1020.3 2.6
05/02:00am 9.1 3.1 5.5 78 1.6 N 26 32 14 17 1020.3 1020.4 2.6
05/01:30am 9.5 4.6 5.3 75 1.9 NNE 20 28 11 15 1020.6 1020.7 2.6
05/01:00am 9.6 4.8 5.4 75 1.9 N 20 30 11 16 1020.7 1020.8 2.6
05/12:30am 9.6 4.8 5.4 75 1.9 N 20 28 11 15 1020.8 1020.9 2.6
05/12:00am 9.5 4.3 5.3 75 1.9 N 22 28 12 15 1020.8 1020.9 2.6
 
Date/Time
EST
Tmp

°C
App
Tmp
°C
Dew
Point
°C
Rel
Hum
%
Delta-T

°C
Wind Press
QNH
hPa
Press
MSL
hPa
Rain
since
9 am
mm
Dir
 
Spd
km/h
Gust
km/h
Spd
kts
Gust
kts
04/11:30pm 9.7 4.1 5.5 75 1.9 N 24 33 13 18 1021.1 1021.2 2.6
04/11:00pm 9.5 4.7 5.5 76 1.8 N 20 26 11 14 1021.1 1021.2 2.6
04/10:30pm 9.3 4.7 5.7 78 1.6 N 19 24 10 13 1021.3 1021.4 2.6
04/10:00pm 9.3 4.5 5.7 78 1.6 N 20 28 11 15 1021.4 1021.5 2.6
04/09:30pm 9.2 4.1 5.9 80 1.5 N 22 28 12 15 1021.4 1021.5 2.6
04/09:00pm 8.9 3.4 6.0 82 1.3 N 24 30 13 16 1021.6 1021.7 2.6
04/08:30pm 9.3 3.8 5.7 78 1.6 N 24 32 13 17 1021.7 1021.8 2.6
04/08:00pm 9.0 4.4 5.7 80 1.5 N 19 24 10 13 1021.7 1021.8 2.6
04/07:30pm 8.8 4.1 6.1 83 1.2 N 20 28 11 15 1021.5 1021.6 2.6
04/07:00pm 8.5 3.9 6.3 86 1.0 N 20 24 11 13 1021.6 1021.7 2.6
04/06:30pm 8.6 3.5 5.9 83 1.2 N 22 30 12 16 1021.6 1021.7 2.4
04/06:00pm 8.7 4.2 6.0 83 1.2 N 19 26 10 14 1021.4 1021.5 2.2
04/05:30pm 8.6 3.9 5.9 83 1.2 N 20 26 11 14 1021.2 1021.3 2.2
04/05:00pm 8.7 3.6 6.0 83 1.2 N 22 28 12 15 1021.3 1021.4 2.2
04/04:30pm 8.8 2.9 5.9 82 1.3 N 26 37 14 20 1021.2 1021.3 2.2
04/04:00pm 8.6 3.1 6.1 84 1.1 N 24 32 13 17 1021.3 1021.4 2.2
04/03:30pm 8.6 3.2 6.2 85 1.1 N 24 33 13 18 1021.2 1021.3 2.2
04/03:00pm 8.4 3.4 6.4 87 0.9 N 22 30 12 16 1021.1 1021.2 2.2
04/02:30pm 8.8 2.6 6.2 84 1.2 N 28 37 15 20 1020.9 1021.0 2.0
04/02:00pm 8.6 2.4 6.2 85 1.1 N 28 35 15 19 1021.0 1021.1 2.0
04/01:30pm 8.7 2.5 6.0 83 1.2 N 28 35 15 19 1021.3 1021.4 2.0
04/01:00pm 8.5 1.9 6.0 84 1.1 N 30 39 16 21 1021.2 1021.3 2.0
04/12:30pm 8.2 2.7 6.0 86 1.0 N 24 33 13 18 1021.8 1021.9 2.0
04/12:00pm 7.8 3.1 6.1 89 0.8 N 20 30 11 16 1022.2 1022.3 2.0
04/11:30am 7.9 2.4 5.7 86 1.0 N 24 33 13 18 1022.4 1022.5 1.4
04/11:00am 8.0 2.8 5.5 84 1.1 N 22 30 12 16 1022.5 1022.6 1.0
04/10:30am 8.0 2.3 5.1 82 1.3 N 24 32 13 17 1022.6 1022.7 0.6
04/10:00am 8.2 2.7 4.0 75 1.8 N 22 32 12 17 1022.7 1022.8 0.2
04/09:30am 8.3 2.7 3.4 71 2.1 N 22 30 12 16 1022.4 1022.5 0.2
04/09:00am 8.4 2.7 3.1 69 2.2 N 22 28 12 15 1022.2 1022.3 0.2
04/08:30am 8.5 1.6 2.5 66 2.5 N 28 33 15 18 1022.2 1022.3 0.0
04/08:00am 8.7 2.4 1.8 62 2.8 N 24 32 13 17 1022.2 1022.3 0.0
04/07:30am 8.7 3.4 1.8 62 2.9 N 19 24 10 13 1022.0 1022.1 0.0
04/07:00am 8.7 2.1 1.8 62 2.8 N 26 32 14 17 1021.7 1021.8 0.0
04/06:30am 8.7 2.8 1.8 62 2.9 N 22 28 12 15 1022.0 1022.1 0.0
04/06:00am 8.7 3.2 1.8 62 2.8 N 20 26 11 14 1021.9 1022.0 0.0
04/05:30am 8.6 3.3 2.0 63 2.7 N 19 24 10 13 1021.9 1022.0 0.0
04/05:00am 8.6 2.7 2.0 63 2.7 N 22 30 12 16 1021.7 1021.8 0.0
04/04:30am 8.6 3.1 1.7 62 2.8 N 20 30 11 16 1021.9 1022.0 0.0
04/04:00am 8.6 3.1 2.0 63 2.7 N 20 26 11 14 1021.9 1022.0 0.0
04/03:30am 8.5 3.0 1.9 63 2.7 N 20 26 11 14 1022.1 1022.2 0.0
04/03:00am 8.5 3.2 1.9 63 2.7 N 19 24 10 13 1022.6 1022.7 0.0
04/02:30am 8.3 3.4 1.9 64 2.6 N 17 22 9 12 1022.9 1023.0 0.0
04/02:00am 8.2 3.6 1.8 64 2.6 N 15 20 8 11 1023.2 1023.3 0.0
04/01:30am 8.2 3.6 1.6 63 2.7 N 15 19 8 10 1023.3 1023.4 0.0
04/01:00am 8.2 3.6 1.6 63 2.7 NNW 15 20 8 11 1023.6 1023.7 0.0
04/12:30am 8.3 2.9 1.5 62 2.8 N 19 22 10 12 1023.8 1023.9 0.0
04/12:00am 8.4 2.8 1.3 61 2.9 NNW 20 28 11 15 1023.9 1024.0 0.0
 
Date/Time
EST
Tmp

°C
App
Tmp
°C
Dew
Point
°C
Rel
Hum
%
Delta-T

°C
Wind Press
QNH
hPa
Press
MSL
hPa
Rain
since
9 am
mm
Dir
 
Spd
km/h
Gust
km/h
Spd
kts
Gust
kts
03/11:30pm 8.3 3.0 1.7 63 2.7 NNW 19 22 10 12 1023.9 1024.0 0.0
03/11:00pm 8.0 3.1 1.8 65 2.5 N 17 22 9 12 1024.1 1024.2 0.0
03/10:30pm 8.0 4.3 2.3 67 2.4 N 11 15 6 8 1024.5 1024.6 0.0
03/10:00pm 7.1 3.4 2.2 71 2.0 N 11 15 6 8 1024.8 1024.9 0.0
03/09:30pm 7.8 4.4 1.9 66 2.4 N 9 11 5 6 1025.1 1025.2 0.0
03/09:00pm 8.9 5.5 1.6 60 3.0 NNW 9 11 5 6 1025.3 1025.4 0.0
03/08:30pm 9.2 5.8 1.6 59 3.1 WNW 9 13 5 7 1025.5 1025.6 0.0
03/08:00pm 9.3 5.9 1.7 59 3.1 NW 9 15 5 8 1025.5 1025.6 0.0
03/07:30pm 9.4 5.5 1.3 57 3.3 WNW 11 15 6 8 1025.6 1025.7 0.0
03/07:00pm 9.3 5.8 1.0 56 3.4 WNW 9 13 5 7 1025.5 1025.6 0.0
03/06:30pm 9.1 5.2 1.0 57 3.3 WNW 11 17 6 9 1025.6 1025.7 0.0
03/06:00pm 8.5 5.0 1.0 59 3.0 WNW 9 11 5 6 1025.6 1025.7 0.0
03/05:30pm 9.0 5.8 1.0 57 3.3 WNW 7 11 4 6 1025.5 1025.6 0.0
03/05:00pm 9.7 5.5 1.4 56 3.4 W 13 19 7 10 1025.6 1025.7 0.0
03/04:30pm 10.0 5.0 1.6 56 3.5 WNW 17 26 9 14 1026.0 1026.1 0.0
03/04:00pm 10.2 5.6 1.6 55 3.6 W 15 24 8 13 1026.0 1026.1 0.0
03/03:30pm 10.2 7.0 3.0 61 3.1 W 9 13 5 7 1025.9 1026.0 0.0
03/03:00pm 10.3 6.7 2.7 59 3.2 W 11 17 6 9 1026.0 1026.1 0.0
03/02:30pm 10.4 6.8 2.7 59 3.3 WNW 11 17 6 9 1026.0 1026.1 0.0
03/02:00pm 10.3 6.2 2.2 57 3.4 WNW 13 19 7 10 1026.3 1026.4 0.0
03/01:30pm 10.7 6.4 3.0 59 3.3 WNW 15 20 8 11 1026.6 1026.7 0.0
03/01:00pm 10.2 6.2 3.0 61 3.1 WNW 13 20 7 11 1026.9 1027.0 0.0
03/12:30pm 10.0 7.1 4.6 69 2.4 WNW 9 15 5 8 1027.3 1027.4 0.0
03/12:00pm 9.7 7.1 4.3 69 2.4 NNW 7 11 4 6 1027.5 1027.6 0.0
03/11:30am 9.1 6.6 4.7 74 2.0 WNW 7 11 4 6 1028.1 1028.2 0.0
03/11:00am 8.6 5.8 5.2 79 1.5 N 9 13 5 7 1028.4 1028.5 0.0
03/10:30am 8.2 6.4 5.3 82 1.3 N 4 9 2 5 1028.8 1028.9 0.0
03/10:00am 7.6 4.4 5.1 84 1.1 N 11 13 6 7 1028.8 1028.9 0.0
03/09:30am 7.3 4.5 5.1 86 1.0 NNW 9 17 5 9 1028.8 1028.9 0.0
03/09:00am 6.7 3.5 5.3 91 0.6 NNW 11 15 6 8 1028.5 1028.6 3.6
03/08:30am 6.2 2.7 5.3 94 0.4 N 13 15 7 8 1028.3 1028.4 3.6
03/08:00am 5.3 2.3 4.1 92 0.5 N 9 11 5 6 1028.2 1028.3 3.6
03/07:30am 5.7 2.7 4.3 91 0.6 N 9 11 5 6 1028.1 1028.2 3.6
03/07:00am 6.7 3.5 5.3 91 0.6 NNW 11 13 6 7 1027.9 1028.0 3.6
03/06:30am 7.0 4.3 5.6 91 0.6 N 9 11 5 6 1027.8 1027.9 3.6
03/06:17am 7.1 4.5 5.9 92 0.5 NW 9 11 5 6 1027.7 1027.8 3.6
03/06:00am 7.3 4.7 6.2 93 0.5 NW 9 13 5 7 1027.7 1027.8 3.6
03/05:57am 7.3 4.7 6.2 93 0.5 NW 9 13 5 7 1027.7 1027.8 3.6
03/05:30am 7.3 4.0 6.2 93 0.5 NW 13 15 7 8 1027.6 1027.7 3.4
03/05:00am 7.1 5.1 6.2 94 0.4 NW 6 9 3 5 1027.6 1027.7 3.4
03/04:30am 7.1 4.5 5.9 92 0.5 NNW 9 11 5 6 1027.5 1027.6 3.4
03/04:00am 7.2 5.0 6.1 93 0.5 WNW 7 11 4 6 1027.6 1027.7 3.4
03/03:30am 6.1 5.0 5.1 93 0.4 CALM 0 0 0 0 1028.0 1028.1 3.4
03/03:00am 6.8 4.1 5.6 92 0.5 NNW 9 11 5 6 1027.8 1027.9 3.2
03/02:30am 7.4 4.8 6.0 91 0.6 NW 9 13 5 7 1027.8 1027.9 3.2
03/02:00am 7.6 4.2 5.9 89 0.8 W 13 17 7 9 1028.3 1028.4 3.2
03/01:30am 7.8 4.3 5.6 86 1.0 WNW 13 19 7 10 1027.9 1028.0 3.2
03/01:00am 8.5 5.5 6.0 84 1.1 SW 11 19 6 10 1027.9 1028.0 3.2
03/12:30am 8.5 5.9 6.3 86 1.0 W 9 15 5 8 1028.1 1028.2 3.0
03/12:00am 8.4 6.1 5.9 84 1.1 W 7 11 4 6 1028.2 1028.3 3.0
 
Date/Time
EST
Tmp

°C
App
Tmp
°C
Dew
Point
°C
Rel
Hum
%
Delta-T

°C
Wind Press
QNH
hPa
Press
MSL
hPa
Rain
since
9 am
mm
Dir
 
Spd
km/h
Gust
km/h
Spd
kts
Gust
kts
02/11:30pm 8.3 4.8 5.4 82 1.3 SSW 13 20 7 11 1028.5 1028.6 3.0
02/11:00pm 8.3 5.6 5.4 82 1.3 WSW 9 13 5 7 1028.3 1028.4 2.8
02/10:30pm 8.3 5.1 5.2 81 1.4 W 11 15 6 8 1028.5 1028.6 2.6
02/10:00pm 8.8 5.3 5.4 79 1.5 W 13 19 7 10 1028.2 1028.3 2.6
02/09:30pm 9.0 5.5 5.6 79 1.5 WSW 13 20 7 11 1028.0 1028.1 2.6
02/09:00pm 8.5 4.4 6.0 84 1.1 WSW 17 28 9 15 1027.9 1028.0 2.6
02/08:30pm 9.4 4.8 5.6 77 1.7 WSW 19 26 10 14 1027.6 1027.7 2.2
02/08:00pm 9.2 5.2 4.8 74 1.9 W 15 22 8 12 1027.5 1027.6 2.2
02/07:30pm 9.5 5.4 4.3 70 2.3 SW 15 20 8 11 1027.1 1027.2 2.2

Latest Capital City Observations: Canberra | Sydney | Melbourne | Brisbane | Adelaide | Perth | Hobart | Darwin

Other Formats:

Comma delimited format used in spreadsheet applications
http://www.bom.gov.au/fwo/IDV60901/IDV60901.94870.axf

JavaScript Object Notation format (JSON) in row-major order
http://www.bom.gov.au/fwo/IDV60901/IDV60901.94870.json